Aérodrome :
LOGIN :

S'inscrire | Disclaimer

   EN    FR    IT 

 










Légende :    VFR   VFR Marginal   IFR   IFR Intensif   IFR Très Intensif
Visi : 
Plafond : 
>= 8 km
>= 3000ft
5 à 8 km
1000 à 3000 ft
1500m à 5 km
500 à 1000 ft
800 à 1500m
200 à 500 ft
< 800m
< 200 ft
Symboles :   Orages  Brouillard  Fortes neiges  Fortes précipitations  Vent > 20 kt
SIGMETs :   Divers  Orages  Givrage  Turbulence  Onde Orograph.  Cendres Volcan.







- Altitude de l'aérodrome : 52 ft
- Code IATA : RNN


EKRN - Bornholm Ronne

DERNIER METAR :
  • 181720Z AUTO 27009KT 9999 FEW018/// 02/M02 Q1014

METARs EXPIRÉS :
  • 181650Z AUTO 27008KT 9999 FEW019/// 02/M02 Q1014
  • 181620Z AUTO 27009KT 9999 FEW020/// 02/M02 Q1014
  • 181550Z AUTO 27009KT 9999 NCD 02/M02 Q1014
  • 181520Z AUTO 28009KT 9999 FEW028/// 02/M03 Q1013
  • 181450Z AUTO 28009KT 9999 NCD 02/M03 Q1013

TAF TAF EKRN
Valide du 18 à 18h jusqu'au 18 à 23h UTC


181715Z 1818/1823 30012KT 9999 FEW020
Pas de NOTAMs connus pour ce terrain.



MET'MAP, la Météo Aéronautique d'un coup d'oeil ! - Copyright ORBIFLY Décembre 2007 - Disclaimer

ORBIFLY MET'MAP TEAM :

Programmation & Développement : Alexandra Zaïnal
Conception & Développement : Baudouin d'Aumeries
Co-Programmation & Développement : Marc-Olivier Méhu
Soutien technique & logistique : Manuel Goepfert

Contact : metmap@orbifly.com




SOURCES & CREDITS :

   NOAA